Location: Bennemühlen
(52.5740°N, 9.7135°E)
Time: 05:51:23
(UTC+00:00)

Tiros 1 - Visible Passes

Search period start: 18 February 2026 00:00
Search period end: 28 February 2026 00:00
Orbit: 618 x 649 km, 48.4° (Epoch: 17 February)

Date Brightness Start Highest point End Pass type
(mag) Time Alt. Az. Time Alt. Az. Time Alt. Az.
23 Feb 10.0 05:11:01 10° SSE 05:12:34 12° SE 05:14:07 10° ESE visible
24 Feb 9.5 05:30:24 10° SSW 05:33:43 19° SSE 05:37:01 10° E visible
26 Feb 9.5 04:32:17 10° S 04:35:16 17° SE 04:38:15 10° ESE visible
27 Feb 8.9 04:52:38 10° SSW 04:56:30 26° SSE 05:00:20 10° E visible
